カタログに戻る

SL-3 R/B

運用中PO
NORAD 8846·ROCKET BODY·🇷🇺 Russia

打ち上げ May 15, 1976 から Plesetsk Cosmodrome

Loading…

次のパス (今後24時間)

TLE

最新Source: Space-Track

元期: Sep 14, 2026, 06:10 UTC

1 08846U 76043B   26257.25750768 -.00000020  00000-0 -18445-4 0  9998
2 08846  81.2225 265.7333 0040422 206.9391 152.9681 14.09036390586094

AllMySatでSL-3 R/Bをリアルタイム追跡

Download on the App Store